Flag for U.S.A. Weather past 2 weeks in Jackson, Mississippi, U.S.A.

Now
75 °F

Clear.


Feels Like: 74 °F
Forecast: 74 / 90 °F
Wind: 7 mph from Southwest

Location: Hawkins Field

Current Time: Jul 2, 2015 at 4:04:59 AM

Latest Report: Jul 2, 2015 at 2:53 AM


Visibility: 10 mi

Pressure: 29.98 "Hg

Humidity: 88%

Dew point: 71 °F

Location of JacksonLocation

Historic Weather in Jackson — Graph

°F

Jackson temperature yesterday

Maximum temperature yesterday: 90 °F (at 3:53 PM)
Minimum temperature yesterday: 70 °F (at 4:53 AM)
Average temperature yesterday: 80 °F

Past Weeks' High & Low Weather Summary

 TemperatureHumidityPressure
High94 °F (Jun 23, 2:53 PM)94% (Jun 17, 5:53 AM)30.15 "Hg (Jun 17, 5:53 AM)
Low69 °F (Jun 29, 2:53 AM)42% (Jun 28, 2:53 PM)29.90 "Hg (Jun 27, 2:53 AM)
Average81 °F73%30.03 "Hg
* Reported Jun 17 5:53 AM — Jul 2 2:53 AM, Jackson, Weather by CustomWeather, © 2015

Note: Actual official high and low records may vary slightly from our data, if they occured in-between our weather recording intervals... More about our weather records

Advertising

Jackson weather history for previous 24 hours

 ConditionsComfort  
Time TempWeatherWind HumidityBarometerVisibility
2:53 AM
Thu, Jul 2
75 °FClear.7 mph88%29.98 "Hg10 mi
1:53 AM75 °FClear.7 mph88%29.99 "Hg10 mi
12:53 AM75 °FClear.8 mph88%30.01 "Hg10 mi
11:53 PM
Wed, Jul 1
76 °FClear.10 mph85%30.01 "Hg10 mi
10:53 PM76 °FClear.7 mph88%30.02 "Hg10 mi
9:53 PM77 °FClear.8 mph82%30.02 "Hg10 mi
8:53 PM79 °FSunny.10 mph74%30.02 "Hg10 mi
7:53 PM82 °FSunny.N/A70%30.02 "Hg10 mi
6:53 PM87 °FSunny.6 mph59%30.00 "Hg10 mi
5:53 PM89 °FSunny.12 mph50%30.00 "Hg10 mi
4:53 PM89 °FSunny.7 mph52%29.98 "Hg10 mi
3:53 PM90 °FSunny.9 mph47%29.99 "Hg10 mi
2:53 PM89 °FPassing clouds.14 mph52%30.01 "Hg10 mi
1:53 PM88 °FSunny.8 mph54%30.04 "Hg10 mi
12:53 PM87 °FSunny.9 mph57%30.07 "Hg10 mi
11:53 AM86 °FSunny.12 mph57%30.08 "Hg10 mi
10:53 AM84 °FSunny.13 mph61%30.06 "Hg10 mi
9:53 AM80 °FSunny.13 mph71%30.07 "Hg10 mi
8:53 AM77 °FSunny.9 mph79%30.08 "Hg10 mi
7:53 AM74 °FSunny.7 mph85%30.06 "Hg10 mi
6:53 AM71 °FClear.6 mph93%30.04 "Hg10 mi
5:53 AM70 °FPassing clouds.6 mph93%30.02 "Hg10 mi
4:53 AM70 °FClear.No wind93%30.00 "Hg9 mi
Weather by CustomWeather, © 2015

See weather overviewHow to use our weather pages